Regional Weather Roundup
Issued by NWS

Home | Current Version | Previous Version | Graphics & Text | Print | Product List | Glossary On
Versions: 1 2 3 4 5 6 7 8 9 10 11 12 13 14 15 16 17 18 19 20 21 22 23 24 25 26 27 28 29 30 31 32 33 34 35 36 37 38 39 40 41 42 43 44 45 46 47 48 49 50
000
ASUS43 KDMX 250201
RWRIA

WEATHER ROUNDUP FOR IOWA
NATIONAL WEATHER SERVICE DES MOINES IA
900 PM CDT SAT JUN 24 2017

NOTE: "FAIR" INDICATES FEW OR NO CLOUDS BELOW 12,000 FEET WITH NO
SIGNIFICANT WEATHER AND/OR OBSTRUCTIONS TO VISIBILITY.

* - THESE STATIONS ARE NOT NWS STATIONS...THUS NOT UNDER NWS
QUALITY CONTROL.  THEY ALSO DO NOT REPORT WEATHER SUCH
AS PRECIPITATION OR FOG.

IAZ001>003-012>014-020>022-031>034-043>046-250300-
   NORTHWEST IOWA

CITY           SKY/WX    TMP DP  RH WIND       PRES   REMARKS
CARROLL *      CLEAR     66  39  37 NW8       30.12R
CHEROKEE *     CLEAR     64  42  44 N9        30.13R
DENISON *      CLEAR     66  39  37 NW8       30.14R
LE MARS *      CLEAR     66  41  39 N13       30.15R
ORANGE CITY *  CLEAR     64  43  45 N9        30.15R
SHELDON *      CLEAR     63  41  45 NW13      30.13R
SIOUX CITY     CLEAR     68  37  32 N13       30.14R
SPENCER        CLEAR     61  41  47 NW9       30.12S
STORM LAKE *   CLEAR     63  41  45 N9        30.13R
$$

IAZ055>058-069>071-079>083-090>094-250300-
   SOUTHWEST IOWA

CITY           SKY/WX    TMP DP  RH WIND       PRES   REMARKS
ATLANTIC *     CLEAR     68  45  42 NW8       30.12R
AUDUBON *      CLEAR     68  39  34 NW3       30.14R
CLARINDA *     CLOUDY    70  50  49 W6        30.15R
COUNCIL BLFS * PTCLDY    70  43  37 NW6       30.13S
CRESTON *      CLEAR     66  45  45 NW7       30.14R
HARLAN  *      CLEAR     66  43  42 NW8       30.16R
LAMONI         CLEAR     68  49  50 W6        30.12R
RED OAK *      PTCLDY    63  54  72 W5        30.13R
SHENANDOAH *   CLEAR     68  52  56 W3        30.13S
$$

IAZ047>049-059>061-072>074-084-250300-
   CENTRAL IOWA

CITY           SKY/WX    TMP DP  RH WIND       PRES   REMARKS
AMES           CLEAR     67  45  45 N10       30.10R
ANKENY *       CLEAR     70  41  35 NW8       30.10R
BOONE *        CLEAR     63  46  55 N7        30.10R
CHARITON *     CLEAR     68  45  42 W6        30.10R
DES MOINES     PTCLDY    72  40  31 NW10      30.09R
GRINNELL*      CLEAR     65  42  42 N7        30.10R
KNOXVILLE *    CLEAR     66  46  48 NW6       30.08R
MARSHALLTOWN   CLEAR     65  43  44 NW14      30.09R
NEWTON *       CLEAR     68  41  37 N10G16    30.09R
PELLA *        CLEAR     68  41  37 NW6       30.09R
PERRY *          N/A     68  36  30 NW9       30.11R
$$

IAZ004>006-015-016-023>025-035-036-250300-
   NORTH CENTRAL IOWA

CITY           SKY/WX    TMP DP  RH WIND       PRES   REMARKS
ALGONA *       CLEAR     63  41  45 NW9       30.11R
CLARION *        N/A     63  41  45 NW10      30.10R
ESTHERVILLE    CLEAR     60  40  47 NW10      30.11S
FORT DODGE *   CLEAR     64  39  39 NW8       30.12R
MASON CITY     CLEAR     60  39  45 NW13      30.10R
FOREST CITY *    N/A     61  32  33 NW8       30.10R
WEBSTER CITY * CLEAR     63  43  48 NW8       30.09R
IOWA FALLS *     N/A     63  43  47 NW9       30.11R
$$

IAZ007>011-017>019-026>030-037>042-050>054-066-250300-
   NORTHEAST IOWA

CITY           SKY/WX    TMP DP  RH WIND       PRES   REMARKS
CEDAR RAPIDS   CLEAR     66  45  46 NW10      30.06R
CHARLES CITY * CLEAR     59  43  55 NW7       30.08R
CLINTON *      LGT RAIN  61  52  72 N9        30.06R
DECORAH *      CLEAR     55  50  82 CALM      30.06R
DUBUQUE        PTCLDY    56  52  86 N7        30.07R
MONTICELLO *   PTCLDY    61  52  72 N6        30.06R
OELWEIN *      CLEAR     59  54  82 CALM      30.08R
WATERLOO       CLEAR     62  42  47 NW9       30.07R
$$

IAZ064-065-067-068-078-250300-
   EAST CENTRAL IOWA

CITY           SKY/WX    TMP DP  RH WIND       PRES   REMARKS
DAVENPORT      CLOUDY    66  48  52 SW9       30.04S
IOWA CITY      PTCLDY    71  44  37 NW9       30.07R
MT. PLEASANT * CLEAR     65  44  48 SW5       30.08R
MUSCATINE *    PTCLDY    70  45  40 SW9       30.05R
QUAD CITIES    RAIN      66  49  54 W16G22    30.04S
$$

IAZ062-063-075>077-085>089-095>099-250300-
   SOUTHEAST IOWA

CITY           SKY/WX    TMP DP  RH WIND       PRES   REMARKS
BURLINGTON     CLEAR     65  48  54 SW7       30.07S
FAIRFIELD *    PTCLDY    68  43  40 SW8       30.07R
FORT MADISON * CLEAR     70  45  40 SW7       30.09S
KEOKUK *       CLEAR     66  48  52 SW7       30.09S
OSKALOOSA *      N/A     64  49  59 W6        30.08R
OTTUMWA        CLEAR     65  46  50 W5        30.08R
WASHINGTON *   PTCLDY    66  46  48 W8        30.07R
$$

ABBREVIATIONS USED IN REMARKS
   TC - TEMPERATURES IN CELSIUS
  WCI - WIND CHILL INDEX
   HX - HEAT INDEX
  VSB - VISIBILITY
$$





USA.gov is the U.S. government's official web portal to all federal, state and local government web resources and services.